This demonstration page uses our WeatherBlox Daily Observations layout. Learn more.

36.17497, -115.13722

Hourly Observations for July 24, 2015

Temp ( °F °C ) Dew Point ( °F °C ) Humidity (%) Winds ( mph kmh ) Pressure ( in mb ) Visibility ( mi km ) Precip ( " mm )
12:53 am 00:53 Clear 86 30 36 2 17 17 SSW 10 17 29.8 1009 10 16.09344 0 0
1:53 am 01:53 Clear 84 29 39 4 20 20 WSW 6 9 29.8 1009 10 16.09344 0 0
2:53 am 02:53 Clear 82 28 43 6 25 25 S 8 13 29.8 1009 10 16.09344 0 0
3:53 am 03:53 Clear 81 27 46 8 30 30 S 13 20 29.83 1010 10 16.09344 0 0
4:53 am 04:53 Clear 79 26 46 8 32 32 S 10 17 29.85 1011 10 16.09344 0 0
5:53 am 05:53 Sunny 79 26 48 9 34 34 Calm 29.88 1012 10 16.09344 0 0
6:53 am 06:53 Sunny 79 26 48 9 34 34 N 5 7 29.91 1013 10 16.09344 0 0
7:53 am 07:53 Sunny 82 28 48 9 30 30 ESE 6 9 29.91 1013 10 16.09344 0 0
8:53 am 08:53 Sunny 84 29 48 9 29 29 S 9 15 29.94 1014 10 16.09344 0 0
9:53 am 09:53 Sunny 90 32 43 6 20 20 S 14 22 29.88 1012 10 16.09344 0 0
10:53 am 10:53 Sunny 91 33 43 6 18 18 SE 9 15 29.85 1011 10 16.09344 0 0
11:16 am 11:16 Sunny 93 34 34 1 12 12 S 18 30 29.85 1011 10 16.09344 0 0
11:53 am 11:53 Sunny 93 34 36 2 13 13 SW 16 26 29.85 1011 10 16.09344 0 0
12:53 pm 12:53 Sunny 97 36 32 0 10 10 SSW 20 31 29.83 1010 10 16.09344 0 0
1:53 pm 13:53 Sunny 99 37 28 -2 8 8 WSW 18 30 29.8 1009 10 16.09344 0 0
2:53 pm 14:53 Sunny 99 37 25 -4 7 7 SSW 22 35 29.77 1008 10 16.09344 0 0
3:53 pm 15:53 Sunny 97 36 27 -3 8 8 S 8 13 29.77 1008 10 16.09344 0 0
4:53 pm 16:53 Sunny 100 38 27 -3 7 7 WSW 16 26 29.71 1006 10 16.09344 0 0
5:53 pm 17:53 Sunny 99 37 30 -1 9 9 SW 15 24 29.71 1006 10 16.09344 0 0
6:53 pm 18:53 Sunny 97 36 30 -1 9 9 SW 13 20 29.71 1006 10 16.09344 0 0
7:53 pm 19:53 Sunny 93 34 30 -1 11 11 SW 13 20 29.74 1007 10 16.09344 0 0
8:53 pm 20:53 Clear 93 34 30 -1 11 11 SW 12 19 29.74 1007 10 16.09344 0 0
9:53 pm 21:53 Clear 91 33 30 -1 11 11 SW 10 17 29.77 1008 10 16.09344 0 0
10:53 pm 22:53 Clear 90 32 30 -1 12 12 SW 9 15 29.8 1009 10 16.09344 0 0
11:53 pm 23:53 Clear 88 31 34 1 15 15 SSW 13 20 29.83 1010 10 16.09344 0 0

Powered by AerisWeather